When you browse on this site, cookies collect data to enhance your experience and personalize the content and advertising you see.
Visit our Privacy Policy to learn more. By continuing to use the site, you agree to this use of cookies and data.
  • en France
  • Liste des pays
  • À 7 jours
  • Température de l'eau
  • Carte météo
  • Widgets météo
  • user-avatar
    Se connecter

    Météo par heure à Lubango

    Ce jour, 20 Février, Jeudi

    Heure Température Précipitation Vent Pression Humidité
    00:00 +16°C° 0.1 mm 1 m/s 608 mmHg 90%
    01:00 +16°C° 0 mm 1 m/s 608 mmHg 90%
    02:00 +16°C° 0 mm 1 m/s 607 mmHg 90%
    03:00 +16°C° 0 mm 1 m/s 607 mmHg 91%
    04:00 +16°C° 0 mm 1 m/s 607 mmHg 91%
    05:00 +16°C° 0 mm 1 m/s 607 mmHg 91%
    06:00 +16°C° 0 mm 1 m/s 608 mmHg 91%
    07:00 +16°C° 0 mm 1 m/s 608 mmHg 90%
    08:00 +19°C° 0.1 mm 1 m/s 609 mmHg 84%
    09:00 +18°C° 0.1 mm 0 m/s 609 mmHg 79%
    10:00 +19°C° 0.1 mm 0 m/s 610 mmHg 73%
    11:00 +22°C° 0.1 mm 1 m/s 610 mmHg 70%
    12:00 +23°C° 0.1 mm 1 m/s 610 mmHg 68%
    13:00 +23°C° 0.1 mm 1 m/s 609 mmHg 66%
    14:00 +23°C° 0.7 mm 1 m/s 608 mmHg 69%
    15:00 +22°C° 0.7 mm 1 m/s 608 mmHg 72%
    16:00 +22°C° 0.7 mm 1 m/s 607 mmHg 76%
    17:00 +21°C° 0.5 mm 1 m/s 607 mmHg 79%
    18:00 +20°C° 0.5 mm 1 m/s 607 mmHg 83%
    19:00 +19°C° 0.5 mm 1 m/s 606 mmHg 86%
    20:00 +18°C° 0 mm 1 m/s 607 mmHg 87%
    21:00 +18°C° 0 mm 1 m/s 607 mmHg 87%
    22:00 +15°C° 0 mm 0 m/s 607 mmHg 87%
    23:00 +15°C° 0 mm 0 m/s 607 mmHg 86%

    Demain, 21 Février, Vendredi

    Heure Température Précipitation Vent Pression Humidité
    00:00 +15°C° 0 mm 0 m/s 607 mmHg 85%
    01:00 +15°C° 0 mm 0 m/s 607 mmHg 84%
    02:00 +15°C° 0 mm 0 m/s 606 mmHg 83%
    03:00 +15°C° 0 mm 0 m/s 606 mmHg 82%
    04:00 +15°C° 0 mm 0 m/s 606 mmHg 81%
    05:00 +15°C° 0 mm 0 m/s 606 mmHg 80%
    06:00 +16°C° 0 mm 0 m/s 607 mmHg 79%
    07:00 +18°C° 0 mm 1 m/s 608 mmHg 78%
    14:00 +26°C° 0.8 mm 1 m/s 609 mmHg 55%
    15:00 +25°C° 0.8 mm 2 m/s 608 mmHg 59%
    16:00 +24°C° 0.8 mm 2 m/s 607 mmHg 65%
    17:00 +21°C° 0.2 mm 2 m/s 607 mmHg 68%
    18:00 +20°C° 0.2 mm 2 m/s 607 mmHg 71%
    19:00 +19°C° 0.2 mm 1 m/s 606 mmHg 74%
    20:00 +19°C° 0 mm 1 m/s 607 mmHg 73%
    21:00 +18°C° 0 mm 1 m/s 607 mmHg 71%
    22:00 +18°C° 0 mm 1 m/s 607 mmHg 70%
    23:00 +18°C° 0 mm 1 m/s 607 mmHg 70%

    Après-demain, 22 Février, Samedi

    Heure Température Précipitation Vent Pression Humidité
    00:00 +18°C° 0 mm 1 m/s 607 mmHg 70%
    01:00 +16°C° 0 mm 1 m/s 607 mmHg 71%
    02:00 +16°C° 0 mm 1 m/s 607 mmHg 68%
    03:00 +16°C° 0 mm 1 m/s 606 mmHg 66%
    04:00 +16°C° 0 mm 1 m/s 606 mmHg 64%
    05:00 +16°C° 0 mm 1 m/s 606 mmHg 63%
    06:00 +16°C° 0 mm 1 m/s 607 mmHg 62%
    07:00 +18°C° 0 mm 1 m/s 608 mmHg 62%
    08:00 +20°C° 0 mm 1 m/s 609 mmHg 55%
    09:00 +23°C° 0 mm 1 m/s 610 mmHg 49%
    10:00 +25°C° 0 mm 1 m/s 611 mmHg 42%
    11:00 +26°C° 0 mm 1 m/s 610 mmHg 41%
    12:00 +27°C° 0 mm 1 m/s 610 mmHg 40%
    13:00 +27°C° 0 mm 1 m/s 610 mmHg 38%
    14:00 +27°C° 0 mm 2 m/s 609 mmHg 40%
    15:00 +26°C° 0 mm 2 m/s 608 mmHg 42%
    16:00 +26°C° 0 mm 2 m/s 608 mmHg 44%
    17:00 +24°C° 0 mm 2 m/s 607 mmHg 47%
    18:00 +21°C° 0 mm 2 m/s 607 mmHg 51%
    19:00 +19°C° 0 mm 2 m/s 606 mmHg 55%
    20:00 +19°C° 0 mm 1 m/s 607 mmHg 53%
    21:00 +19°C° 0 mm 1 m/s 607 mmHg 51%
    22:00 +19°C° 0 mm 1 m/s 607 mmHg 50%
    23:00 +18°C° 0 mm 1 m/s 607 mmHg 51%

    23 Février, Dimanche

    Heure Température Précipitation Vent Pression Humidité
    00:00 +18°C° 0 mm 1 m/s 607 mmHg 53%
    01:00 +18°C° 0 mm 1 m/s 607 mmHg 55%
    02:00 +16°C° 0 mm 1 m/s 607 mmHg 54%
    03:00 +16°C° 0 mm 1 m/s 606 mmHg 52%
    04:00 +16°C° 0 mm 1 m/s 606 mmHg 51%
    05:00 +16°C° 0 mm 1 m/s 607 mmHg 51%
    06:00 +16°C° 0 mm 1 m/s 607 mmHg 51%
    07:00 +16°C° 0 mm 1 m/s 607 mmHg 50%
    08:00 +20°C° 0 mm 1 m/s 608 mmHg 47%
    09:00 +22°C° 0 mm 1 m/s 609 mmHg 43%
    10:00 +24°C° 0 mm 1 m/s 610 mmHg 39%
    11:00 +25°C° 0 mm 2 m/s 610 mmHg 39%
    12:00 +25°C° 0 mm 2 m/s 610 mmHg 40%
    13:00 +26°C° 0 mm 2 m/s 609 mmHg 40%
    14:00 +25°C° 0 mm 3 m/s 609 mmHg 42%
    15:00 +25°C° 0 mm 3 m/s 608 mmHg 44%
    16:00 +24°C° 0 mm 3 m/s 608 mmHg 46%
    17:00 +21°C° 0 mm 2 m/s 608 mmHg 53%
    18:00 +19°C° 0 mm 2 m/s 607 mmHg 60%
    19:00 +18°C° 0 mm 1 m/s 607 mmHg 67%
    20:00 +17°C° 0 mm 2 m/s 607 mmHg 68%
    21:00 +16°C° 0 mm 2 m/s 607 mmHg 69%
    22:00 +16°C° 0 mm 2 m/s 608 mmHg 70%
    23:00 +15°C° 0 mm 2 m/s 607 mmHg 73%

    24 Février, Lundi

    Heure Température Précipitation Vent Pression Humidité
    00:00 +15°C° 0 mm 2 m/s 607 mmHg 76%
    01:00 +14°C° 0 mm 1 m/s 607 mmHg 79%
    02:00 +14°C° 0 mm 1 m/s 607 mmHg 78%
    03:00 +14°C° 0 mm 1 m/s 606 mmHg 77%
    04:00 +13°C° 0 mm 1 m/s 606 mmHg 77%
    05:00 +13°C° 0 mm 1 m/s 607 mmHg 76%
    06:00 +14°C° 0 mm 1 m/s 607 mmHg 76%
    07:00 +14°C° 0 mm 1 m/s 607 mmHg 75%
    08:00 +16°C° 0 mm 1 m/s 608 mmHg 68%
    09:00 +20°C° 0 mm 1 m/s 609 mmHg 60%
    10:00 +21°C° 0 mm 2 m/s 611 mmHg 52%
    11:00 +23°C° 0 mm 2 m/s 610 mmHg 51%
    12:00 +24°C° 0 mm 2 m/s 610 mmHg 49%
    13:00 +25°C° 0 mm 2 m/s 610 mmHg 48%
    14:00 +24°C° 0 mm 2 m/s 609 mmHg 50%
    15:00 +24°C° 0 mm 3 m/s 609 mmHg 52%
    16:00 +22°C° 0 mm 3 m/s 608 mmHg 54%
    17:00 +21°C° 0 mm 2 m/s 608 mmHg 60%
    18:00 +19°C° 0 mm 2 m/s 607 mmHg 67%
    19:00 +18°C° 0 mm 1 m/s 607 mmHg 73%
    20:00 +16°C° 0 mm 1 m/s 607 mmHg 75%
    21:00 +16°C° 0 mm 1 m/s 607 mmHg 77%
    22:00 +15°C° 0 mm 1 m/s 608 mmHg 78%
    23:00 +15°C° 0 mm 1 m/s 607 mmHg 79%

    25 Février, Mardi

    Heure Température Précipitation Vent Pression Humidité
    00:00 +15°C° 0 mm 1 m/s 607 mmHg 79%
    01:00 +15°C° 0 mm 1 m/s 607 mmHg 79%
    02:00 +15°C° 0 mm 1 m/s 607 mmHg 74%
    03:00 +15°C° 0 mm 1 m/s 606 mmHg 69%
    04:00 +15°C° 0 mm 1 m/s 606 mmHg 65%
    05:00 +15°C° 0 mm 1 m/s 607 mmHg 63%
    06:00 +15°C° 0 mm 1 m/s 607 mmHg 60%
    07:00 +16°C° 0 mm 1 m/s 607 mmHg 58%
    08:00 +19°C° 0 mm 1 m/s 608 mmHg 52%
    09:00 +21°C° 0 mm 1 m/s 609 mmHg 47%
    10:00 +23°C° 0 mm 2 m/s 610 mmHg 41%
    11:00 +24°C° 0 mm 2 m/s 610 mmHg 40%
    12:00 +25°C° 0 mm 2 m/s 610 mmHg 39%
    13:00 +26°C° 0 mm 2 m/s 610 mmHg 38%
    14:00 +25°C° 0 mm 3 m/s 609 mmHg 40%
    15:00 +25°C° 0 mm 3 m/s 608 mmHg 41%
    16:00 +25°C° 0 mm 3 m/s 608 mmHg 43%
    17:00 +21°C° 0 mm 3 m/s 607 mmHg 53%
    18:00 +19°C° 0 mm 2 m/s 607 mmHg 63%
    19:00 +18°C° 0 mm 1 m/s 606 mmHg 73%
    20:00 +16°C° 0 mm 1 m/s 606 mmHg 76%
    21:00 +16°C° 0 mm 1 m/s 607 mmHg 79%
    22:00 +15°C° 0 mm 1 m/s 607 mmHg 83%
    23:00 +15°C° 0 mm 1 m/s 607 mmHg 80%
    Voir plus